Wetterdaten: Donnerstag, 28.07.2016
Datum Zeit Temp. A. Aussentemp2 Feuchte A. Luftdruck Regen Wind Richtung Richtung Sonnenschein Helligkeit Solar
28.07.2016 00:01 20,8 C 20,5 C 65 % 1014,6 hPa 0,0 l/m 16,9 km/h (3 Bft) W-SW22.5 255 0 min 0 lux 0 W/m
28.07.2016 00:05 20,8 C 20,5 C 65 % 1014,6 hPa 0,0 l/m 15,8 km/h (3 Bft) W22.5 265 0 min 0 lux 0 W/m
28.07.2016 00:10 20,8 C 20,5 C 65 % 1014,6 hPa 0,0 l/m 14,5 km/h (3 Bft) W-SW22.5 255 0 min 0 lux 0 W/m
28.07.2016 00:16 20,8 C 20,5 C 65 % 1014,6 hPa 0,0 l/m 18,0 km/h (3 Bft) W-SW22.5 245 0 min 0 lux 0 W/m
28.07.2016 00:21 20,7 C 20,5 C 65 % 1014,7 hPa 0,0 l/m 16,0 km/h (3 Bft) SW22.5 230 0 min 0 lux 0 W/m
28.07.2016 00:25 20,7 C 20,5 C 66 % 1014,7 hPa 0,0 l/m 12,0 km/h (2 Bft) SW22.5 235 0 min 0 lux 0 W/m
28.07.2016 00:30 20,6 C 20,5 C 66 % 1014,7 hPa 0,0 l/m 9,9 km/h (2 Bft) SW22.5 230 0 min 0 lux 0 W/m
28.07.2016 00:35 20,5 C 20,5 C 66 % 1014,7 hPa 0,0 l/m 10,6 km/h (2 Bft) SW 225 0 min 0 lux 0 W/m
28.07.2016 00:40 20,4 C 20,5 C 66 % 1014,7 hPa 0,0 l/m 10,3 km/h (2 Bft) SW22.5 235 0 min 0 lux 0 W/m
28.07.2016 00:46 20,4 C 20,5 C 66 % 1014,7 hPa 0,0 l/m 10,8 km/h (2 Bft) W-SW22.5 240 0 min 0 lux 0 W/m
28.07.2016 00:51 20,2 C 20,5 C 66 % 1014,7 hPa 0,0 l/m 12,3 km/h (2 Bft) W-SW22.5 240 0 min 0 lux 0 W/m
28.07.2016 00:55 20,2 C 20,5 C 66 % 1014,7 hPa 0,0 l/m 9,1 km/h (2 Bft) SW22.5 230 0 min 0 lux 0 W/m
28.07.2016 01:00 20,1 C 20,5 C 67 % 1014,7 hPa 0,0 l/m 10,6 km/h (2 Bft) W-SW22.5 240 0 min 0 lux 0 W/m
28.07.2016 01:06 20,0 C 20,5 C 67 % 1014,7 hPa 0,0 l/m 12,1 km/h (2 Bft) W-SW22.5 240 0 min 0 lux 0 W/m
28.07.2016 01:11 20,0 C 20,5 C 67 % 1014,7 hPa 0,0 l/m 8,9 km/h (2 Bft) W-SW22.5 240 0 min 0 lux 0 W/m
28.07.2016 01:15 19,9 C 20,5 C 68 % 1014,7 hPa 0,0 l/m 11,8 km/h (2 Bft) W-SW22.5 240 0 min 0 lux 0 W/m
28.07.2016 01:20 20,0 C 20,5 C 68 % 1014,7 hPa 0,0 l/m 10,2 km/h (2 Bft) W-SW 240 0 min 0 lux 0 W/m
28.07.2016 01:25 19,9 C 20,5 C 68 % 1014,7 hPa 0,0 l/m 7,2 km/h (2 Bft) W-SW 245 0 min 0 lux 0 W/m
28.07.2016 01:31 20,0 C 20,5 C 68 % 1014,7 hPa 0,0 l/m 8,9 km/h (2 Bft) W-SW 240 0 min 0 lux 0 W/m
28.07.2016 01:36 20,0 C 20,5 C 68 % 1014,7 hPa 0,0 l/m 13,0 km/h (3 Bft) SW22.5 225 0 min 0 lux 0 W/m
28.07.2016 01:40 20,0 C 20,5 C 68 % 1014,7 hPa 0,0 l/m 12,1 km/h (2 Bft) SW22.5 225 0 min 0 lux 0 W/m
28.07.2016 01:45 20,0 C 20,5 C 68 % 1014,7 hPa 0,0 l/m 14,8 km/h (3 Bft) SW22.5 225 0 min 0 lux 0 W/m
28.07.2016 01:50 20,0 C 20,5 C 68 % 1014,7 hPa 0,0 l/m 12,7 km/h (3 Bft) SW22.5 225 0 min 0 lux 0 W/m
28.07.2016 01:55 20,0 C 20,5 C 68 % 1014,7 hPa 0,0 l/m 15,5 km/h (3 Bft) W-SW45 245 0 min 0 lux 0 W/m
28.07.2016 02:01 20,0 C 20,5 C 68 % 1014,7 hPa 0,0 l/m 14,8 km/h (3 Bft) SW22.5 230 0 min 0 lux 0 W/m
28.07.2016 02:05 20,0 C 20,5 C 69 % 1014,7 hPa 0,0 l/m 20,5 km/h (4 Bft) SW22.5 225 0 min 0 lux 0 W/m
28.07.2016 02:10 19,7 C 20,5 C 71 % 1014,7 hPa 0,0 l/m 13,8 km/h (3 Bft) SW22.5 225 0 min 0 lux 0 W/m
28.07.2016 02:16 19,6 C 20,5 C 71 % 1014,7 hPa 0,0 l/m 13,8 km/h (3 Bft) SW22.5 225 0 min 0 lux 0 W/m
28.07.2016 02:21 19,4 C 20,5 C 72 % 1014,7 hPa 0,0 l/m 13,6 km/h (3 Bft) SW22.5 235 0 min 0 lux 0 W/m
28.07.2016 02:25 19,2 C 20,5 C 73 % 1014,7 hPa 0,0 l/m 15,2 km/h (3 Bft) SW22.5 225 0 min 0 lux 0 W/m
28.07.2016 02:30 19,2 C 20,5 C 73 % 1014,7 hPa 0,0 l/m 11,9 km/h (2 Bft) SW22.5 215 0 min 0 lux 0 W/m
28.07.2016 02:35 19,1 C 20,5 C 73 % 1014,7 hPa 0,0 l/m 12,5 km/h (2 Bft) SW22.5 225 0 min 0 lux 0 W/m
28.07.2016 02:40 19,0 C 20,5 C 73 % 1014,7 hPa 0,0 l/m 11,3 km/h (2 Bft) SW22.5 220 0 min 0 lux 0 W/m
28.07.2016 02:46 19,0 C 20,5 C 73 % 1014,7 hPa 0,0 l/m 13,5 km/h (3 Bft) S-SW22.5 205 0 min 0 lux 0 W/m
28.07.2016 02:51 19,0 C 20,5 C 73 % 1014,7 hPa 0,0 l/m 13,4 km/h (3 Bft) SW22.5 220 0 min 0 lux 0 W/m
28.07.2016 02:55 19,0 C 20,5 C 74 % 1014,7 hPa 0,0 l/m 14,5 km/h (3 Bft) SW22.5 225 0 min 0 lux 0 W/m
28.07.2016 03:00 19,0 C 20,5 C 74 % 1014,7 hPa 0,0 l/m 10,8 km/h (2 Bft) SW22.5 220 0 min 0 lux 0 W/m
28.07.2016 03:06 19,0 C 20,5 C 74 % 1014,7 hPa 0,0 l/m 9,1 km/h (2 Bft) SW22.5 230 0 min 0 lux 0 W/m
28.07.2016 03:11 19,0 C 20,5 C 74 % 1014,7 hPa 0,0 l/m 11,1 km/h (2 Bft) SW22.5 225 0 min 0 lux 0 W/m
28.07.2016 03:15 19,0 C 20,5 C 74 % 1014,7 hPa 0,0 l/m 11,6 km/h (2 Bft) SW22.5 225 0 min 0 lux 0 W/m
28.07.2016 03:20 19,0 C 20,5 C 74 % 1014,7 hPa 0,0 l/m 10,5 km/h (2 Bft) SW22.5 225 0 min 0 lux 0 W/m
28.07.2016 03:25 19,0 C 20,5 C 75 % 1014,7 hPa 0,0 l/m 16,3 km/h (3 Bft) SW45 225 0 min 0 lux 0 W/m
28.07.2016 03:31 19,0 C 20,5 C 75 % 1014,7 hPa 0,0 l/m 15,3 km/h (3 Bft) SW22.5 225 0 min 0 lux 0 W/m
28.07.2016 03:36 19,0 C 20,5 C 75 % 1014,7 hPa 0,0 l/m 14,3 km/h (3 Bft) SW22.5 225 0 min 0 lux 0 W/m
28.07.2016 03:40 18,9 C 20,5 C 75 % 1014,7 hPa 0,0 l/m 16,2 km/h (3 Bft) SW45 220 0 min 0 lux 0 W/m
28.07.2016 03:45 18,8 C 20,5 C 75 % 1014,7 hPa 0,0 l/m 15,0 km/h (3 Bft) SW67.5 225 0 min 0 lux 0 W/m
28.07.2016 03:50 18,8 C 20,5 C 76 % 1014,7 hPa 0,0 l/m 15,8 km/h (3 Bft) SW22.5 220 0 min 0 lux 0 W/m
28.07.2016 03:56 18,8 C 20,5 C 76 % 1014,7 hPa 0,0 l/m 14,7 km/h (3 Bft) SW22.5 225 0 min 0 lux 0 W/m
28.07.2016 04:01 18,8 C 20,5 C 77 % 1014,7 hPa 0,0 l/m 11,5 km/h (2 Bft) SW67.5 230 0 min 0 lux 0 W/m
28.07.2016 04:05 18,8 C 20,5 C 77 % 1014,7 hPa 0,0 l/m 14,3 km/h (3 Bft) SW22.5 225 0 min 0 lux 0 W/m
28.07.2016 04:10 18,7 C 20,5 C 77 % 1014,7 hPa 0,0 l/m 14,0 km/h (3 Bft) SW45 225 0 min 0 lux 0 W/m
28.07.2016 04:16 18,7 C 20,5 C 78 % 1014,7 hPa 0,0 l/m 12,1 km/h (2 Bft) SW22.5 215 0 min 0 lux 0 W/m
28.07.2016 04:21 18,6 C 20,5 C 78 % 1014,7 hPa 0,0 l/m 15,8 km/h (3 Bft) SW45 230 0 min 0 lux 0 W/m
28.07.2016 04:25 18,7 C 20,5 C 78 % 1014,7 hPa 0,0 l/m 13,0 km/h (3 Bft) SW22.5 230 0 min 0 lux 0 W/m
28.07.2016 04:30 18,6 C 20,5 C 78 % 1014,7 hPa 0,0 l/m 14,6 km/h (3 Bft) SW22.5 235 0 min 0 lux 0 W/m
28.07.2016 04:35 18,6 C 20,5 C 79 % 1014,7 hPa 0,0 l/m 8,2 km/h (2 Bft) W-SW22.5 240 0 min 0 lux 0 W/m
28.07.2016 04:41 18,6 C 20,5 C 79 % 1014,7 hPa 0,0 l/m 8,7 km/h (2 Bft) W-SW45 240 0 min 0 lux 0 W/m
28.07.2016 04:46 18,6 C 20,5 C 78 % 1013,7 hPa 0,0 l/m 10,3 km/h (2 Bft) W-SW22.5 240 0 min 0 lux 0 W/m
28.07.2016 04:51 18,7 C 20,5 C 78 % 1013,7 hPa 0,0 l/m 10,5 km/h (2 Bft) W-SW22.5 245 0 min 0 lux 0 W/m
28.07.2016 04:55 18,7 C 20,5 C 78 % 1013,7 hPa 0,0 l/m 4,6 km/h (1 Bft) SW 235 0 min 0 lux 0 W/m
28.07.2016 05:00 18,7 C 20,5 C 78 % 1013,7 hPa 0,0 l/m 6,1 km/h (2 Bft) SW 235 0 min 0 lux 0 W/m
28.07.2016 05:06 18,6 C 20,5 C 79 % 1013,7 hPa 0,0 l/m 5,0 km/h (1 Bft) W-SW 240 0 min 0 lux 0 W/m
28.07.2016 05:10 18,6 C 20,5 C 78 % 1013,7 hPa 0,0 l/m 4,8 km/h (1 Bft) SW 230 0 min 0 lux 0 W/m
28.07.2016 05:15 18,6 C 20,5 C 78 % 1013,7 hPa 0,0 l/m 6,3 km/h (2 Bft) SW 225 0 min 0 lux 0 W/m
28.07.2016 05:20 18,6 C 20,5 C 78 % 1013,7 hPa 0,0 l/m 6,5 km/h (2 Bft) SW 220 0 min 0 lux 0 W/m
28.07.2016 05:26 18,6 C 20,5 C 79 % 1013,7 hPa 0,0 l/m 1,0 km/h (0 Bft) SW 220 0 min 0 lux 0 W/m
28.07.2016 05:31 18,6 C 20,5 C 79 % 1013,7 hPa 0,0 l/m 7,3 km/h (2 Bft) S-SW22.5 195 0 min 0 lux 0 W/m
28.07.2016 05:36 18,4 C 20,5 C 79 % 1013,7 hPa 0,0 l/m 9,8 km/h (2 Bft) S22.5 180 0 min 0 lux 0 W/m
28.07.2016 05:40 18,4 C 20,5 C 80 % 1013,7 hPa 0,0 l/m 9,4 km/h (2 Bft) S22.5 175 0 min 48 lux 0 W/m
28.07.2016 05:45 18,3 C 20,5 C 80 % 1013,7 hPa 0,0 l/m 10,3 km/h (2 Bft) S22.5 180 0 min 70 lux 0 W/m
28.07.2016 05:50 18,2 C 20,5 C 81 % 1013,7 hPa 0,0 l/m 9,5 km/h (2 Bft) S-SW22.5 195 0 min 83 lux 0 W/m
28.07.2016 05:56 18,3 C 20,5 C 81 % 1013,7 hPa 0,0 l/m 8,7 km/h (2 Bft) S22.5 185 0 min 132 lux 0 W/m
28.07.2016 06:01 18,2 C 20,5 C 81 % 1013,7 hPa 0,0 l/m 8,7 km/h (2 Bft) S22.5 180 0 min 143 lux 1 W/m
28.07.2016 06:05 18,2 C 20,5 C 81 % 1013,7 hPa 0,0 l/m 7,9 km/h (2 Bft) S22.5 170 0 min 191 lux 1 W/m
28.07.2016 06:11 18,2 C 20,5 C 82 % 1013,7 hPa 0,0 l/m 8,9 km/h (2 Bft) S-SO22.5 160 0 min 199 lux 1 W/m
28.07.2016 06:16 18,1 C 20,5 C 82 % 1013,7 hPa 0,0 l/m 10,3 km/h (2 Bft) S22.5 170 0 min 316 lux 2 W/m
28.07.2016 06:21 18,0 C 20,5 C 82 % 1013,7 hPa 0,0 l/m 12,7 km/h (3 Bft) S45 185 0 min 422 lux 3 W/m
28.07.2016 06:25 18,0 C 20,5 C 82 % 1013,7 hPa 0,0 l/m 7,9 km/h (2 Bft) S22.5 190 0 min 521 lux 4 W/m
28.07.2016 06:30 18,0 C 20,5 C 82 % 1013,7 hPa 0,0 l/m 10,8 km/h (2 Bft) S22.5 180 0 min 567 lux 4 W/m
28.07.2016 06:35 18,0 C 20,5 C 83 % 1013,7 hPa 0,0 l/m 10,4 km/h (2 Bft) S22.5 190 0 min 402 lux 3 W/m
28.07.2016 06:41 17,9 C 20,5 C 82 % 1013,7 hPa 0,0 l/m 14,4 km/h (3 Bft) S22.5 185 0 min 525 lux 4 W/m
28.07.2016 06:46 17,8 C 20,5 C 82 % 1013,7 hPa 0,0 l/m 13,8 km/h (3 Bft) S45 185 0 min 1,03 klux 7 W/m
28.07.2016 06:50 17,8 C 20,5 C 82 % 1013,7 hPa 0,0 l/m 11,0 km/h (2 Bft) S22.5 170 0 min 969 lux 7 W/m
28.07.2016 06:55 17,8 C 20,5 C 82 % 1013,7 hPa 0,0 l/m 12,5 km/h (2 Bft) S22.5 170 0 min 1,00 klux 7 W/m
28.07.2016 07:00 17,8 C 20,5 C 83 % 1013,7 hPa 0,0 l/m 9,6 km/h (2 Bft) S45 175 0 min 1,64 klux 11 W/m
28.07.2016 07:05 17,8 C 20,5 C 83 % 1013,7 hPa 0,0 l/m 9,6 km/h (2 Bft) S45 175 0 min 1,51 klux 10 W/m
28.07.2016 07:10 17,8 C 20,5 C 83 % 1013,7 hPa 0,0 l/m 9,3 km/h (2 Bft) S-SO22.5 155 0 min 1,95 klux 13 W/m
28.07.2016 07:15 17,8 C 20,5 C 83 % 1013,7 hPa 0,0 l/m 11,6 km/h (2 Bft) S-SO22.5 160 0 min 1,93 klux 13 W/m
28.07.2016 07:21 17,7 C 20,5 C 83 % 1013,7 hPa 0,0 l/m 11,5 km/h (2 Bft) S22.5 170 0 min 1,75 klux 12 W/m
28.07.2016 07:26 17,7 C 20,5 C 83 % 1013,7 hPa 0,0 l/m 10,3 km/h (2 Bft) S22.5 170 0 min 1,56 klux 11 W/m
28.07.2016 07:31 17,8 C 20,5 C 83 % 1013,7 hPa 0,0 l/m 11,5 km/h (2 Bft) S22.5 175 0 min 2,01 klux 14 W/m
28.07.2016 07:35 17,8 C 20,5 C 83 % 1013,7 hPa 0,0 l/m 7,9 km/h (2 Bft) S22.5 175 0 min 2,72 klux 19 W/m
28.07.2016 07:40 17,8 C 20,5 C 83 % 1013,7 hPa 0,0 l/m 8,3 km/h (2 Bft) S22.5 175 0 min 3,37 klux 23 W/m
28.07.2016 07:45 17,8 C 20,5 C 83 % 1013,7 hPa 0,0 l/m 11,8 km/h (2 Bft) S-SO45 165 0 min 3,91 klux 27 W/m
28.07.2016 07:51 17,9 C 20,5 C 83 % 1013,7 hPa 0,0 l/m 9,0 km/h (2 Bft) S-SO22.5 160 0 min 3,87 klux 26 W/m
28.07.2016 07:56 18,0 C 20,5 C 83 % 1013,7 hPa 0,0 l/m 11,8 km/h (2 Bft) S-SO22.5 160 0 min 4,04 klux 28 W/m
28.07.2016 08:00 17,9 C 20,5 C 82 % 1013,7 hPa 0,0 l/m 13,4 km/h (3 Bft) S-SO22.5 160 0 min 4,82 klux 33 W/m
28.07.2016 08:06 18,0 C 20,5 C 83 % 1013,7 hPa 0,0 l/m 11,2 km/h (2 Bft) S-SO22.5 160 0 min 5,77 klux 39 W/m
28.07.2016 08:11 18,1 C 20,5 C 83 % 1013,7 hPa 0,0 l/m 9,7 km/h (2 Bft) S-SO22.5 165 0 min 7,31 klux 50 W/m
28.07.2016 08:16 18,1 C 20,5 C 83 % 1013,7 hPa 0,0 l/m 13,6 km/h (3 Bft) S22.5 180 0 min 12,1 klux 83 W/m
28.07.2016 08:20 18,1 C 20,5 C 83 % 1013,7 hPa 0,1 l/m 14,3 km/h (3 Bft) S45 180 0 min 15,3 klux 105 W/m
28.07.2016 08:25 18,2 C 20,5 C 83 % 1013,7 hPa 0,0 l/m 13,8 km/h (3 Bft) S45 185 0 min 15,5 klux 106 W/m
28.07.2016 08:30 18,2 C 20,5 C 83 % 1013,7 hPa 0,0 l/m 14,4 km/h (3 Bft) S-SW45 210 0 min 12,6 klux 86 W/m
28.07.2016 08:36 18,1 C 20,5 C 83 % 1013,7 hPa 0,0 l/m 18,0 km/h (3 Bft) S-SW45 200 0 min 8,26 klux 56 W/m
28.07.2016 08:41 18,0 C 20,5 C 83 % 1013,7 hPa 0,0 l/m 18,1 km/h (3 Bft) S-SW45 210 0 min 6,97 klux 48 W/m
28.07.2016 08:45 18,0 C 20,5 C 83 % 1013,7 hPa 0,0 l/m 15,6 km/h (3 Bft) S-SW45 200 0 min 6,16 klux 42 W/m
28.07.2016 08:50 18,0 C 20,5 C 83 % 1013,7 hPa 0,0 l/m 17,5 km/h (3 Bft) S-SW22.5 210 0 min 5,88 klux 40 W/m
28.07.2016 08:55 17,8 C 20,5 C 83 % 1013,7 hPa 0,0 l/m 18,3 km/h (3 Bft) S-SW45 195 0 min 5,20 klux 36 W/m
28.07.2016 09:01 17,9 C 20,5 C 83 % 1013,7 hPa 0,0 l/m 21,6 km/h (4 Bft) S-SW45 200 0 min 6,00 klux 41 W/m
28.07.2016 09:05 17,8 C 20,5 C 83 % 1013,7 hPa 0,0 l/m 15,6 km/h (3 Bft) S-SW22.5 210 0 min 7,81 klux 53 W/m
28.07.2016 09:10 17,8 C 20,5 C 83 % 1013,7 hPa 0,0 l/m 13,9 km/h (3 Bft) S-SW22.5 200 0 min 5,56 klux 38 W/m
28.07.2016 09:16 18,0 C 20,5 C 83 % 1013,7 hPa 0,0 l/m 11,2 km/h (2 Bft) S-SW22.5 210 0 min 5,43 klux 37 W/m
28.07.2016 09:21 18,0 C 20,5 C 83 % 1013,7 hPa 0,0 l/m 11,2 km/h (2 Bft) S-SW22.5 210 0 min 5,24 klux 36 W/m
28.07.2016 09:26 18,0 C 20,5 C 83 % 1013,7 hPa 0,0 l/m 10,6 km/h (2 Bft) S45 180 0 min 5,89 klux 40 W/m
28.07.2016 09:30 18,0 C 20,5 C 83 % 1013,7 hPa 0,0 l/m 11,2 km/h (2 Bft) S22.5 170 0 min 6,36 klux 44 W/m
28.07.2016 09:35 18,0 C 20,5 C 83 % 1013,7 hPa 0,0 l/m 15,5 km/h (3 Bft) S22.5 185 0 min 6,65 klux 45 W/m
28.07.2016 09:40 18,0 C 20,5 C 83 % 1013,7 hPa 0,0 l/m 13,5 km/h (3 Bft) S22.5 170 0 min 10,1 klux 69 W/m
28.07.2016 09:46 18,1 C 20,5 C 83 % 1013,7 hPa 0,0 l/m 14,2 km/h (3 Bft) S45 180 0 min 11,2 klux 77 W/m
28.07.2016 09:51 18,3 C 20,5 C 83 % 1013,7 hPa 0,0 l/m 11,8 km/h (2 Bft) S22.5 185 0 min 28,7 klux 196 W/m
28.07.2016 09:55 18,3 C 20,5 C 83 % 1013,7 hPa 0,0 l/m 13,5 km/h (3 Bft) S22.5 175 0 min 21,9 klux 150 W/m
28.07.2016 10:00 18,5 C 20,5 C 83 % 1013,7 hPa 0,0 l/m 16,0 km/h (3 Bft) S-SW45 205 0 min 14,9 klux 102 W/m
28.07.2016 10:06 18,8 C 20,5 C 82 % 1013,7 hPa 0,0 l/m 15,5 km/h (3 Bft) SW45 215 0 min 8,53 klux 58 W/m
28.07.2016 10:10 18,7 C 20,5 C 82 % 1013,7 hPa 0,0 l/m 17,2 km/h (3 Bft) S-SW45 205 0 min 15,7 klux 107 W/m
28.07.2016 10:15 18,7 C 20,5 C 82 % 1013,7 hPa 0,0 l/m 19,5 km/h (3 Bft) S-SW45 195 0 min 24,3 klux 166 W/m
28.07.2016 10:20 18,7 C 20,5 C 81 % 1013,7 hPa 0,0 l/m 16,0 km/h (3 Bft) S-SW45 210 0 min 15,7 klux 107 W/m
28.07.2016 10:25 18,7 C 20,5 C 81 % 1013,7 hPa 0,0 l/m 15,9 km/h (3 Bft) S45 185 0 min 12,5 klux 86 W/m
28.07.2016 10:31 18,7 C 20,5 C 81 % 1013,7 hPa 0,0 l/m 15,6 km/h (3 Bft) S-SW45 205 0 min 10,2 klux 70 W/m
28.07.2016 10:36 18,8 C 20,5 C 81 % 1013,7 hPa 0,0 l/m 18,6 km/h (3 Bft) S22.5 190 0 min 13,5 klux 92 W/m
28.07.2016 10:40 18,8 C 20,5 C 82 % 1013,7 hPa 0,0 l/m 15,5 km/h (3 Bft) S-SW45 205 0 min 11,9 klux 81 W/m
28.07.2016 10:45 18,8 C 20,5 C 82 % 1013,7 hPa 0,1 l/m 15,6 km/h (3 Bft) SW22.5 215 0 min 8,92 klux 61 W/m
28.07.2016 10:50 18,8 C 20,5 C 83 % 1013,7 hPa 0,1 l/m 14,1 km/h (3 Bft) S-SW22.5 210 0 min 13,9 klux 95 W/m
28.07.2016 10:56 18,7 C 20,5 C 83 % 1013,7 hPa 0,0 l/m 16,3 km/h (3 Bft) S-SW45 210 0 min 15,4 klux 105 W/m
28.07.2016 11:01 18,8 C 20,5 C 84 % 1013,7 hPa 0,0 l/m 20,3 km/h (4 Bft) SW45 225 0 min 15,3 klux 105 W/m
28.07.2016 11:05 18,6 C 20,5 C 83 % 1013,7 hPa 0,0 l/m 20,2 km/h (4 Bft) S-SW45 205 0 min 16,1 klux 110 W/m
28.07.2016 11:11 18,8 C 20,5 C 84 % 1013,7 hPa 0,1 l/m 15,5 km/h (3 Bft) SW22.5 225 0 min 29,8 klux 204 W/m
28.07.2016 11:16 18,8 C 20,5 C 83 % 1013,7 hPa 0,0 l/m 20,6 km/h (4 Bft) SW45 220 0 min 20,7 klux 142 W/m
28.07.2016 11:21 18,8 C 20,5 C 84 % 1013,7 hPa 0,0 l/m 19,1 km/h (3 Bft) SW45 225 0 min 13,5 klux 92 W/m
28.07.2016 11:25 18,8 C 20,5 C 83 % 1013,7 hPa 0,0 l/m 12,3 km/h (2 Bft) SW22.5 220 0 min 18,1 klux 124 W/m
28.07.2016 11:30 18,9 C 20,5 C 83 % 1013,7 hPa 0,0 l/m 14,5 km/h (3 Bft) SW22.5 220 0 min 13,9 klux 95 W/m
28.07.2016 11:35 19,0 C 20,5 C 83 % 1013,7 hPa 0,0 l/m 11,9 km/h (2 Bft) SW45 215 0 min 11,8 klux 81 W/m
28.07.2016 11:41 19,0 C 20,5 C 83 % 1013,7 hPa 0,0 l/m 17,8 km/h (3 Bft) SW45 215 0 min 11,9 klux 81 W/m
28.07.2016 11:46 19,1 C 20,5 C 83 % 1013,7 hPa 0,0 l/m 14,4 km/h (3 Bft) S-SW45 205 0 min 28,6 klux 196 W/m
28.07.2016 11:50 19,1 C 20,5 C 82 % 1013,7 hPa 0,0 l/m 14,8 km/h (3 Bft) S22.5 190 0 min 25,9 klux 177 W/m
28.07.2016 11:55 19,4 C 20,5 C 82 % 1013,7 hPa 0,0 l/m 10,4 km/h (2 Bft) S22.5 190 0 min 34,3 klux 235 W/m
28.07.2016 12:01 19,5 C 20,5 C 81 % 1013,7 hPa 0,0 l/m 17,1 km/h (3 Bft) S-SW45 195 0 min 13,2 klux 90 W/m
28.07.2016 12:05 19,4 C 20,5 C 80 % 1013,7 hPa 0,0 l/m 18,5 km/h (3 Bft) S-SW22.5 195 0 min 13,2 klux 90 W/m
28.07.2016 12:10 19,5 C 20,5 C 80 % 1013,7 hPa 0,0 l/m 20,1 km/h (4 Bft) S22.5 170 0 min 15,2 klux 104 W/m
28.07.2016 12:15 19,7 C 20,5 C 80 % 1013,7 hPa 0,0 l/m 19,6 km/h (3 Bft) S45 175 0 min 38,7 klux 265 W/m
28.07.2016 12:21 20,0 C 20,5 C 80 % 1013,7 hPa 0,0 l/m 19,0 km/h (3 Bft) S45 185 0 min 50,5 klux 345 W/m
28.07.2016 12:26 20,5 C 20,5 C 80 % 1013,6 hPa 0,0 l/m 16,6 km/h (3 Bft) S-SW45 195 5 min 64,4 klux 440 W/m
28.07.2016 12:30 21,0 C 20,5 C 76 % 1013,6 hPa 0,0 l/m 21,8 km/h (4 Bft) S22.5 175 4 min 69,5 klux 475 W/m
28.07.2016 12:35 21,2 C 20,5 C 76 % 1013,6 hPa 0,0 l/m 17,5 km/h (3 Bft) S22.5 175 0 min 30,3 klux 207 W/m
28.07.2016 12:40 21,3 C 20,5 C 75 % 1013,6 hPa 0,0 l/m 19,4 km/h (3 Bft) S45 180 0 min 32,4 klux 222 W/m
28.07.2016 12:46 21,3 C 20,5 C 74 % 1013,6 hPa 0,0 l/m 23,1 km/h (4 Bft) S67.5 180 0 min 48,6 klux 332 W/m
28.07.2016 12:51 21,3 C 20,5 C 74 % 1013,6 hPa 0,0 l/m 24,5 km/h (4 Bft) S22.5 180 0 min 40,6 klux 278 W/m
28.07.2016 12:55 21,4 C 20,5 C 74 % 1013,6 hPa 0,0 l/m 12,3 km/h (2 Bft) S45 185 0 min 39,2 klux 268 W/m
28.07.2016 13:00 21,5 C 20,5 C 73 % 1013,6 hPa 0,0 l/m 20,2 km/h (4 Bft) S45 185 0 min 45,5 klux 311 W/m
28.07.2016 13:06 21,6 C 20,5 C 74 % 1013,6 hPa 0,0 l/m 18,4 km/h (3 Bft) S45 180 0 min 47,6 klux 326 W/m
28.07.2016 13:11 21,8 C 20,5 C 73 % 1013,6 hPa 0,0 l/m 12,6 km/h (3 Bft) S45 185 0 min 57,2 klux 391 W/m
28.07.2016 13:15 22,0 C 20,5 C 73 % 1013,6 hPa 0,0 l/m 15,0 km/h (3 Bft) S22.5 175 0 min 60,6 klux 415 W/m
28.07.2016 13:20 22,0 C 20,5 C 72 % 1013,6 hPa 0,0 l/m 19,2 km/h (3 Bft) S22.5 180 0 min 31,5 klux 215 W/m
28.07.2016 13:25 21,8 C 20,5 C 72 % 1013,6 hPa 0,0 l/m 25,2 km/h (4 Bft) S45 185 0 min 36,1 klux 247 W/m
28.07.2016 13:31 21,7 C 20,5 C 72 % 1013,6 hPa 0,0 l/m 18,9 km/h (3 Bft) SW45 215 0 min 45,4 klux 311 W/m
28.07.2016 13:36 21,8 C 20,5 C 73 % 1013,6 hPa 0,0 l/m 21,3 km/h (4 Bft) S22.5 170 0 min 40,6 klux 278 W/m
28.07.2016 13:40 21,8 C 20,5 C 73 % 1013,6 hPa 0,0 l/m 21,6 km/h (4 Bft) S45 180 4 min 74,6 klux 510 W/m
28.07.2016 13:45 22,0 C 20,5 C 72 % 1013,6 hPa 0,0 l/m 19,9 km/h (4 Bft) S-SW45 210 0 min 33,8 klux 231 W/m
28.07.2016 13:50 22,1 C 20,5 C 71 % 1013,6 hPa 0,0 l/m 21,8 km/h (4 Bft) S-SW45 210 0 min 33,8 klux 231 W/m
28.07.2016 13:56 22,1 C 20,5 C 70 % 1013,6 hPa 0,0 l/m 21,9 km/h (4 Bft) S-SW45 200 0 min 50,7 klux 347 W/m
28.07.2016 14:01 22,3 C 20,5 C 69 % 1012,6 hPa 0,0 l/m 24,0 km/h (4 Bft) S-SW45 200 0 min 60,1 klux 411 W/m
28.07.2016 14:05 22,8 C 20,5 C 69 % 1012,6 hPa 0,0 l/m 19,8 km/h (3 Bft) SW45 215 0 min 58,6 klux 401 W/m
28.07.2016 14:10 22,8 C 20,5 C 69 % 1012,6 hPa 0,0 l/m 19,1 km/h (3 Bft) S45 185 5 min 102 klux 698 W/m
28.07.2016 14:16 22,9 C 20,5 C 68 % 1012,6 hPa 0,0 l/m 20,6 km/h (4 Bft) S-SW45 200 6 min 91,4 klux 625 W/m
28.07.2016 14:21 23,3 C 20,5 C 67 % 1012,6 hPa 0,0 l/m 22,5 km/h (4 Bft) S-SW45 205 0 min 51,1 klux 350 W/m
28.07.2016 14:25 23,4 C 20,5 C 66 % 1012,6 hPa 0,0 l/m 22,8 km/h (4 Bft) S45 175 0 min 64,5 klux 441 W/m
28.07.2016 14:30 23,4 C 20,5 C 66 % 1012,6 hPa 0,0 l/m 23,5 km/h (4 Bft) S45 185 0 min 63,3 klux 433 W/m
28.07.2016 14:35 23,8 C 20,5 C 65 % 1012,6 hPa 0,0 l/m 20,3 km/h (4 Bft) SW45 215 0 min 48,7 klux 333 W/m
28.07.2016 14:41 23,5 C 20,5 C 65 % 1012,6 hPa 0,0 l/m 18,8 km/h (3 Bft) SW45 215 0 min 61,4 klux 420 W/m
28.07.2016 14:45 23,6 C 20,5 C 66 % 1012,6 hPa 0,0 l/m 18,8 km/h (3 Bft) S-SW45 200 0 min 47,7 klux 326 W/m
28.07.2016 14:50 23,6 C 20,5 C 64 % 1012,6 hPa 0,0 l/m 22,3 km/h (4 Bft) SW45 220 0 min 48,8 klux 334 W/m
28.07.2016 14:55 23,6 C 20,5 C 65 % 1012,6 hPa 0,0 l/m 26,1 km/h (4 Bft) S-SW45 210 0 min 60,0 klux 410 W/m
28.07.2016 15:01 23,9 C 20,5 C 64 % 1012,6 hPa 0,0 l/m 21,5 km/h (4 Bft) S-SW22.5 210 6 min 94,2 klux 644 W/m
28.07.2016 15:05 24,1 C 20,5 C 62 % 1012,6 hPa 0,0 l/m 23,6 km/h (4 Bft) SW45 230 0 min 48,5 klux 332 W/m
28.07.2016 15:10 24,1 C 20,5 C 63 % 1012,6 hPa 0,0 l/m 16,1 km/h (3 Bft) S-SW45 195 0 min 43,2 klux 295 W/m
28.07.2016 15:16 24,1 C 23,3 C 63 % 1012,6 hPa 0,0 l/m 20,9 km/h (4 Bft) SW22.5 225 0 min 36,8 klux 252 W/m
28.07.2016 15:21 24,0 C 23,0 C 62 % 1012,6 hPa 0,0 l/m 21,3 km/h (4 Bft) S-SW67.5 200 5 min 77,2 klux 528 W/m
28.07.2016 15:25 24,3 C 23,5 C 61 % 1012,6 hPa 0,0 l/m 26,8 km/h (4 Bft) SW45 215 4 min 89,7 klux 614 W/m
28.07.2016 15:30 24,9 C 23,8 C 60 % 1012,6 hPa 0,0 l/m 21,1 km/h (4 Bft) SW67.5 225 5 min 76,1 klux 521 W/m
28.07.2016 15:35 25,0 C 23,9 C 59 % 1012,6 hPa 0,0 l/m 21,1 km/h (4 Bft) SW67.5 225 5 min 77,7 klux 531 W/m
28.07.2016 15:41 25,2 C 23,8 C 58 % 1012,6 hPa 0,0 l/m 21,7 km/h (4 Bft) SW22.5 225 0 min 44,5 klux 304 W/m
28.07.2016 15:46 24,8 C 23,6 C 58 % 1011,6 hPa 0,0 l/m 21,6 km/h (4 Bft) S-SW45 210 0 min 21,0 klux 144 W/m
28.07.2016 15:50 24,4 C 23,6 C 60 % 1011,6 hPa 0,0 l/m 21,4 km/h (4 Bft) SW67.5 225 0 min 32,2 klux 220 W/m
28.07.2016 15:55 24,3 C 23,6 C 59 % 1011,6 hPa 0,0 l/m 20,1 km/h (4 Bft) SW45 225 0 min 23,1 klux 158 W/m
28.07.2016 16:00 24,2 C 23,6 C 60 % 1011,6 hPa 0,0 l/m 20,5 km/h (4 Bft) SW45 230 0 min 30,4 klux 208 W/m
28.07.2016 16:05 24,6 C 23,6 C 60 % 1011,6 hPa 0,0 l/m 17,6 km/h (3 Bft) SW45 215 5 min 80,6 klux 551 W/m
28.07.2016 16:10 24,8 C 23,6 C 58 % 1011,6 hPa 0,0 l/m 23,2 km/h (4 Bft) SW45 225 0 min 37,5 klux 257 W/m
28.07.2016 16:15 24,7 C 23,6 C 58 % 1011,6 hPa 0,0 l/m 23,8 km/h (4 Bft) W-SW45 240 5 min 74,6 klux 510 W/m
28.07.2016 16:21 25,2 C 24,0 C 57 % 1011,6 hPa 0,0 l/m 29,0 km/h (5 Bft) SW45 225 0 min 20,8 klux 142 W/m
28.07.2016 16:26 25,2 C 24,0 C 57 % 1011,6 hPa 0,0 l/m 24,8 km/h (4 Bft) SW45 215 0 min 52,0 klux 356 W/m
28.07.2016 16:30 25,4 C 24,2 C 56 % 1011,6 hPa 0,0 l/m 25,1 km/h (4 Bft) SW22.5 225 4 min 70,0 klux 479 W/m
28.07.2016 16:35 25,8 C 24,8 C 55 % 1011,6 hPa 0,0 l/m 25,8 km/h (4 Bft) W-SW45 250 5 min 61,5 klux 421 W/m
28.07.2016 16:40 25,5 C 24,8 C 54 % 1011,6 hPa 0,0 l/m 23,3 km/h (4 Bft) SW67.5 230 5 min 60,5 klux 414 W/m
28.07.2016 16:46 25,2 C 23,8 C 56 % 1011,6 hPa 0,0 l/m 21,6 km/h (4 Bft) SW67.5 220 0 min 20,5 klux 140 W/m
28.07.2016 16:51 24,7 C 23,8 C 57 % 1011,6 hPa 0,0 l/m 20,1 km/h (4 Bft) SW45 220 0 min 31,7 klux 217 W/m
28.07.2016 16:55 25,4 C 24,7 C 57 % 1011,6 hPa 0,0 l/m 12,1 km/h (2 Bft) SW45 220 4 min 77,7 klux 531 W/m
28.07.2016 17:00 25,9 C 25,2 C 56 % 1011,6 hPa 0,0 l/m 18,1 km/h (3 Bft) SW67.5 225 5 min 71,7 klux 490 W/m
28.07.2016 17:06 25,7 C 24,5 C 52 % 1011,6 hPa 0,0 l/m 27,0 km/h (5 Bft) W-SW45 250 0 min 22,7 klux 155 W/m
28.07.2016 17:11 25,2 C 24,4 C 56 % 1011,6 hPa 0,0 l/m 23,9 km/h (4 Bft) W22.5 275 0 min 21,5 klux 147 W/m
28.07.2016 17:15 25,0 C 24,2 C 56 % 1011,6 hPa 0,0 l/m 26,4 km/h (4 Bft) W-SW45 250 0 min 23,6 klux 161 W/m
28.07.2016 17:20 25,0 C 24,2 C 56 % 1011,6 hPa 0,0 l/m 21,7 km/h (4 Bft) SW45 235 0 min 22,0 klux 150 W/m
28.07.2016 17:25 25,2 C 24,2 C 58 % 1011,6 hPa 0,0 l/m 19,5 km/h (3 Bft) W22.5 280 5 min 68,9 klux 471 W/m
28.07.2016 17:31 25,6 C 25,4 C 57 % 1011,6 hPa 0,0 l/m 24,1 km/h (4 Bft) W45 265 6 min 64,6 klux 442 W/m
28.07.2016 17:36 25,5 C 24,7 C 54 % 1011,6 hPa 0,0 l/m 23,0 km/h (4 Bft) W45 275 0 min 26,4 klux 181 W/m
28.07.2016 17:40 25,0 C 24,5 C 56 % 1011,6 hPa 0,0 l/m 27,3 km/h (5 Bft) W-SW45 250 0 min 18,6 klux 127 W/m
28.07.2016 17:45 25,0 C 24,5 C 56 % 1011,6 hPa 0,0 l/m 20,7 km/h (4 Bft) W-SW45 240 0 min 21,2 klux 145 W/m
28.07.2016 17:50 24,8 C 24,5 C 57 % 1011,6 hPa 0,0 l/m 18,9 km/h (3 Bft) W-SW45 255 0 min 28,6 klux 196 W/m
28.07.2016 17:56 24,6 C 24,5 C 57 % 1011,6 hPa 0,0 l/m 22,4 km/h (4 Bft) W-NW67.5 290 0 min 22,5 klux 154 W/m
28.07.2016 18:01 24,8 C 24,5 C 57 % 1010,6 hPa 0,0 l/m 20,0 km/h (4 Bft) W45 275 5 min 54,4 klux 372 W/m
28.07.2016 18:05 25,2 C 24,5 C 54 % 1010,6 hPa 0,0 l/m 24,9 km/h (4 Bft) W67.5 275 4 min 51,3 klux 351 W/m
28.07.2016 18:11 25,2 C 24,5 C 53 % 1010,6 hPa 0,0 l/m 29,8 km/h (5 Bft) W22.5 280 0 min 21,8 klux 149 W/m
28.07.2016 18:16 25,1 C 24,5 C 55 % 1010,6 hPa 0,0 l/m 20,6 km/h (4 Bft) W22.5 270 0 min 25,5 klux 174 W/m
28.07.2016 18:20 24,8 C 24,5 C 54 % 1010,6 hPa 0,0 l/m 25,3 km/h (4 Bft) W-NW45 290 0 min 22,1 klux 151 W/m
28.07.2016 18:25 24,7 C 24,5 C 56 % 1010,6 hPa 0,0 l/m 25,1 km/h (4 Bft) W45 275 0 min 21,8 klux 149 W/m
28.07.2016 18:30 25,3 C 24,5 C 54 % 1010,6 hPa 0,0 l/m 25,8 km/h (4 Bft) W45 270 5 min 44,7 klux 306 W/m
28.07.2016 18:36 25,4 C 24,5 C 52 % 1010,6 hPa 0,0 l/m 27,7 km/h (5 Bft) W22.5 275 0 min 20,4 klux 140 W/m
28.07.2016 18:41 25,4 C 24,5 C 52 % 1010,6 hPa 0,0 l/m 23,1 km/h (4 Bft) W67.5 265 0 min 26,7 klux 183 W/m
28.07.2016 18:45 24,5 C 24,5 C 54 % 1011,6 hPa 0,0 l/m 30,7 km/h (5 Bft) W67.5 260 0 min 10,5 klux 72 W/m
28.07.2016 18:50 24,2 C 24,5 C 55 % 1011,6 hPa 0,0 l/m 28,0 km/h (5 Bft) W67.5 265 0 min 13,3 klux 91 W/m
28.07.2016 18:55 24,1 C 24,5 C 56 % 1011,6 hPa 0,0 l/m 21,7 km/h (4 Bft) W22.5 270 0 min 13,8 klux 94 W/m
28.07.2016 19:00 24,1 C 24,5 C 56 % 1010,6 hPa 0,0 l/m 25,1 km/h (4 Bft) W-SW67.5 250 0 min 12,6 klux 86 W/m
28.07.2016 19:05 24,0 C 24,5 C 57 % 1010,6 hPa 0,0 l/m 22,9 km/h (4 Bft) W45 270 0 min 11,4 klux 78 W/m
28.07.2016 19:10 24,0 C 24,5 C 54 % 1010,6 hPa 0,0 l/m 23,3 km/h (4 Bft) W-SW45 250 0 min 11,9 klux 81 W/m
28.07.2016 19:15 24,2 C 24,5 C 55 % 1010,6 hPa 0,0 l/m 26,8 km/h (4 Bft) W-SW45 250 0 min 17,0 klux 116 W/m
28.07.2016 19:21 24,3 C 24,5 C 55 % 1010,6 hPa 0,0 l/m 27,4 km/h (5 Bft) W-SW22.5 255 0 min 19,4 klux 133 W/m
28.07.2016 19:26 24,2 C 24,5 C 55 % 1010,6 hPa 0,0 l/m 25,6 km/h (4 Bft) W-SW45 255 0 min 20,4 klux 140 W/m
28.07.2016 19:30 24,2 C 24,5 C 56 % 1010,6 hPa 0,0 l/m 24,1 km/h (4 Bft) W22.5 280 0 min 16,4 klux 112 W/m
28.07.2016 19:35 24,1 C 24,5 C 55 % 1010,6 hPa 0,0 l/m 24,6 km/h (4 Bft) W-NW22.5 285 5 min 26,4 klux 181 W/m
28.07.2016 19:40 24,2 C 24,5 C 55 % 1010,6 hPa 0,0 l/m 23,9 km/h (4 Bft) W45 260 5 min 27,5 klux 188 W/m
28.07.2016 19:46 24,2 C 24,5 C 55 % 1010,6 hPa 0,0 l/m 26,1 km/h (4 Bft) W22.5 270 6 min 25,9 klux 177 W/m
28.07.2016 19:51 24,4 C 24,5 C 54 % 1010,6 hPa 0,0 l/m 21,8 km/h (4 Bft) W-SW67.5 245 5 min 24,2 klux 166 W/m
28.07.2016 19:55 24,5 C 24,5 C 53 % 1010,6 hPa 0,0 l/m 25,4 km/h (4 Bft) W45 260 4 min 22,9 klux 157 W/m
28.07.2016 20:00 24,5 C 24,5 C 54 % 1010,6 hPa 0,0 l/m 22,8 km/h (4 Bft) W22.5 265 5 min 22,1 klux 151 W/m
28.07.2016 20:06 24,5 C 24,5 C 54 % 1010,6 hPa 0,0 l/m 21,9 km/h (4 Bft) W22.5 260 6 min 19,5 klux 133 W/m
28.07.2016 20:11 24,4 C 24,5 C 53 % 1010,6 hPa 0,0 l/m 21,8 km/h (4 Bft) W-SW22.5 255 5 min 16,6 klux 114 W/m
28.07.2016 20:15 24,3 C 24,5 C 53 % 1010,6 hPa 0,0 l/m 19,2 km/h (3 Bft) W-SW45 250 0 min 8,72 klux 60 W/m
28.07.2016 20:20 23,8 C 24,5 C 54 % 1010,6 hPa 0,0 l/m 18,8 km/h (3 Bft) W-SW22.5 245 0 min 6,54 klux 45 W/m
28.07.2016 20:25 23,4 C 24,5 C 55 % 1010,6 hPa 0,0 l/m 23,9 km/h (4 Bft) W45 260 0 min 5,19 klux 35 W/m
28.07.2016 20:31 23,3 C 24,5 C 55 % 1010,6 hPa 0,0 l/m 19,9 km/h (4 Bft) W-SW45 255 0 min 3,12 klux 21 W/m
28.07.2016 20:36 23,0 C 24,5 C 57 % 1011,6 hPa 0,0 l/m 21,6 km/h (4 Bft) W22.5 260 0 min 2,44 klux 17 W/m
28.07.2016 20:40 22,8 C 24,5 C 57 % 1011,6 hPa 0,0 l/m 20,7 km/h (4 Bft) W45 260 0 min 2,32 klux 16 W/m
28.07.2016 20:45 22,7 C 24,5 C 57 % 1011,6 hPa 0,0 l/m 16,8 km/h (3 Bft) W22.5 265 0 min 2,41 klux 16 W/m
28.07.2016 20:51 22,6 C 24,5 C 57 % 1011,6 hPa 0,0 l/m 20,8 km/h (4 Bft) W45 265 0 min 2,30 klux 16 W/m
28.07.2016 20:56 22,6 C 24,5 C 57 % 1011,6 hPa 0,0 l/m 19,5 km/h (3 Bft) W45 260 0 min 2,22 klux 15 W/m
28.07.2016 21:00 22,4 C 24,5 C 57 % 1011,6 hPa 0,0 l/m 22,8 km/h (4 Bft) W45 260 0 min 1,75 klux 12 W/m
28.07.2016 21:05 22,4 C 24,5 C 57 % 1011,6 hPa 0,0 l/m 20,5 km/h (4 Bft) W-SW45 250 0 min 1,21 klux 8 W/m
28.07.2016 21:11 22,2 C 22,9 C 58 % 1011,6 hPa 0,0 l/m 17,2 km/h (3 Bft) W-SW45 250 0 min 858 lux 6 W/m
28.07.2016 21:16 22,0 C 22,9 C 59 % 1011,6 hPa 0,0 l/m 17,3 km/h (3 Bft) W-SW22.5 255 0 min 761 lux 5 W/m
28.07.2016 21:20 21,9 C 22,9 C 59 % 1011,6 hPa 0,0 l/m 16,0 km/h (3 Bft) W22.5 260 0 min 492 lux 3 W/m
28.07.2016 21:25 21,8 C 22,9 C 60 % 1011,6 hPa 0,0 l/m 14,5 km/h (3 Bft) W-SW22.5 255 0 min 332 lux 0 W/m
28.07.2016 21:30 21,8 C 22,7 C 60 % 1011,6 hPa 0,0 l/m 14,1 km/h (3 Bft) W45 265 0 min 221 lux 0 W/m
28.07.2016 21:36 21,7 C 22,7 C 60 % 1011,6 hPa 0,0 l/m 16,8 km/h (3 Bft) W45 270 0 min 129 lux 0 W/m
28.07.2016 21:41 21,7 C 22,7 C 60 % 1011,6 hPa 0,0 l/m 19,7 km/h (3 Bft) W22.5 260 0 min 71 lux 0 W/m
28.07.2016 21:45 21,7 C 22,7 C 60 % 1011,6 hPa 0,0 l/m 17,8 km/h (3 Bft) W-SW22.5 250 0 min 50 lux 0 W/m
28.07.2016 21:50 21,7 C 22,6 C 60 % 1011,6 hPa 0,0 l/m 16,0 km/h (3 Bft) W22.5 260 0 min 24 lux 0 W/m
28.07.2016 21:55 21,6 C 22,6 C 60 % 1011,6 hPa 0,0 l/m 16,6 km/h (3 Bft) W22.5 260 0 min 11 lux 0 W/m
28.07.2016 22:01 21,6 C 22,6 C 60 % 1011,6 hPa 0,0 l/m 14,3 km/h (3 Bft) W-SW22.5 255 0 min 5 lux 0 W/m
28.07.2016 22:05 21,6 C 22,5 C 60 % 1011,6 hPa 0,0 l/m 12,5 km/h (2 Bft) W-SW22.5 255 0 min 0 lux 0 W/m
28.07.2016 22:10 21,5 C 22,5 C 61 % 1011,6 hPa 0,0 l/m 12,8 km/h (3 Bft) W22.5 270 0 min 0 lux 0 W/m
28.07.2016 22:16 21,3 C 22,6 C 61 % 1011,6 hPa 0,0 l/m 12,0 km/h (2 Bft) W22.5 270 0 min 0 lux 0 W/m
28.07.2016 22:21 21,2 C 22,5 C 61 % 1011,6 hPa 0,0 l/m 14,2 km/h (3 Bft) W 270 0 min 0 lux 0 W/m
28.07.2016 22:25 21,1 C 22,4 C 61 % 1011,6 hPa 0,0 l/m 10,5 km/h (2 Bft) W-SW22.5 240 0 min 0 lux 0 W/m
28.07.2016 22:30 21,0 C 22,3 C 62 % 1011,6 hPa 0,0 l/m 11,2 km/h (2 Bft) W-SW22.5 250 0 min 0 lux 0 W/m
28.07.2016 22:35 20,8 C 22,4 C 62 % 1011,6 hPa 0,0 l/m 11,0 km/h (2 Bft) W 260 0 min 0 lux 0 W/m
28.07.2016 22:41 20,6 C 22,2 C 63 % 1011,6 hPa 0,0 l/m 12,3 km/h (2 Bft) W-SW22.5 250 0 min 0 lux 0 W/m
28.07.2016 22:46 20,5 C 22,2 C 63 % 1011,6 hPa 0,0 l/m 9,6 km/h (2 Bft) W22.5 260 0 min 0 lux 0 W/m
28.07.2016 22:50 20,3 C 22,2 C 63 % 1011,6 hPa 0,0 l/m 14,0 km/h (3 Bft) W-SW22.5 255 0 min 0 lux 0 W/m
28.07.2016 22:55 20,1 C 22,2 C 64 % 1011,6 hPa 0,0 l/m 12,7 km/h (3 Bft) W22.5 270 0 min 0 lux 0 W/m
28.07.2016 23:00 20,0 C 22,0 C 64 % 1011,6 hPa 0,0 l/m 16,0 km/h (3 Bft) W22.5 275 0 min 0 lux 0 W/m
28.07.2016 23:05 20,0 C 21,9 C 64 % 1011,6 hPa 0,0 l/m 18,2 km/h (3 Bft) W22.5 280 0 min 0 lux 0 W/m
28.07.2016 23:10 20,0 C 21,9 C 63 % 1011,6 hPa 0,0 l/m 15,8 km/h (3 Bft) W45 270 0 min 0 lux 0 W/m
28.07.2016 23:15 20,0 C 21,9 C 63 % 1011,6 hPa 0,0 l/m 16,2 km/h (3 Bft) W-NW22.5 290 0 min 0 lux 0 W/m
28.07.2016 23:21 19,6 C 21,8 C 65 % 1011,7 hPa 0,0 l/m 12,6 km/h (3 Bft) W-NW 285 0 min 0 lux 0 W/m
28.07.2016 23:26 19,3 C 21,8 C 66 % 1011,7 hPa 0,0 l/m 9,6 km/h (2 Bft) W 275 0 min 0 lux 0 W/m
28.07.2016 23:30 19,0 C 21,8 C 66 % 1011,7 hPa 0,0 l/m 9,4 km/h (2 Bft) W 275 0 min 0 lux 0 W/m
28.07.2016 23:35 19,0 C 21,5 C 66 % 1011,7 hPa 0,0 l/m 8,7 km/h (2 Bft) W 275 0 min 0 lux 0 W/m
28.07.2016 23:40 18,8 C 21,5 C 67 % 1011,7 hPa 0,0 l/m 8,4 km/h (2 Bft) W 275 0 min 0 lux 0 W/m
28.07.2016 23:46 18,8 C 21,4 C 67 % 1011,7 hPa 0,0 l/m 7,4 km/h (2 Bft) W 275 0 min 0 lux 0 W/m
28.07.2016 23:51 18,8 C 21,5 C 67 % 1011,7 hPa 0,0 l/m 11,1 km/h (2 Bft) W 275 0 min 0 lux 0 W/m
28.07.2016 23:55 18,8 C 21,5 C 67 % 1011,7 hPa 0,0 l/m 10,3 km/h (2 Bft) W 270 0 min 0 lux 0 W/m
_ Min-Zeit 07:21 00:01 17:06 18:36 - 05:26 - - - - -
Minimum _ 17,7 C 20,5 C 52 % 1010,6 hPa - 1,0 km/h (0 Bft) - - - - -
_ Max-Zeit 17:00 17:31 11:01 04:21 08:20 18:45 - - 14:16 14:10 14:10
Maximum _ 25,9 C 25,4 C 84 % 1014,7 hPa 0,1 l/m 30,7 km/h
W (5 Bft)
- - 6 min 102 klux 698 W/m
Durchschnitt _ 20,9 C 21,7 C 70 % 1013,0 hPa #0,5 l/m 16,3 km/h (3 Bft) SW - #2:28 h 16,6 klux 177 W/m